sat.trackr.live / text

‹ back to catalog

STARLINK-32564

NORAD 61924 · 2024-207N

PAYLOAD ACTIVE UNKNOWN

§ Identity

Operator
Country
US
Launch date
2024-11-11
Launch site
AFETR
Launch vehicle
Mass (kg)
RCS (m²)

Purposes: comms

External: N2YO · Heavens-Above · Gunter

§ Orbital elements

Epoch: 2026-09-21T22:51:48.070080Z

Period
94.27 min
Inclination
42.9988°
Eccentricity
0.0000887
Mean motion
15.27581895 rev/d
Perigee alt
482.4 km
Apogee alt
483.7 km
Semi-major
6,861.2 km
B*
2.6414e-4
RAAN
257.1813°
Arg perigee
274.4200°
Mean anomaly
85.6550°
Rev number
10,469

§ Raw data

STARLINK-325641 61924U 24207N   26264.95263970  .00007014  00000+0  26414-3 0  99992 61924  42.9988 257.1813 0000887 274.4200  85.6550 15.27581895104693

JSON: /api/v1/satellites/61924 · /tle

For live sub-satellite position, see the globe view (requires WebGL).

§ Visibility from observer

Set your observer location to see the next 7 days of passes ≥ 10°. The values pass through the URL so the page stays shareable.

No JS? Fill the form by hand. The geolocation button needs JavaScript.